QTR189 OTHH-LOWW

Flight info

Callsign QTR189
Flight time N/A
Altitude 29000
Route DATRI L564 MIGMA/N0516F280 M550 MEVDO Y511 ITRUX/N0495F380 Y511 KITUB/N0488F400 Y511 PMA Z712 WEJ L677 CVO L617 NOZ L551 ANTAR DCT RIGRO DCT DISOR DCT LONTA UL608 DOLEV DCT OBUTI OBUTI2W
Aircraft A359/H-SDE2E3GHIJ3J4J5LM1ORWXY/LB1D1

Departure

Time 2026-05-06 09:13
Airport Hamad International Airport (OTHH)

Arrival

Time N/A
Airport Vienna International Airport (LOWW)
Time Latitude Longitude Altitude Speed Heading
2026-05-06 08:51 25.26400 51.61136 28 ft 0 kts 72°
2026-05-06 09:01 25.26400 51.61135 28 ft 2 kts 72°
2026-05-06 09:02 25.26392 51.61109 26 ft 4 kts 72°
2026-05-06 09:02 25.26384 51.61083 27 ft 2 kts 72°
2026-05-06 09:02 25.26375 51.61058 27 ft 4 kts 54°
2026-05-06 09:02 25.26360 51.61040 26 ft 4 kts 20°
2026-05-06 09:03 25.26340 51.61037 27 ft 4 kts 340°
2026-05-06 09:03 25.26317 51.61050 26 ft 4 kts 329°
2026-05-06 09:03 25.26301 51.61060 26 ft 4 kts 333°
2026-05-06 09:03 25.26292 51.61065 26 ft 0 kts 338°
2026-05-06 09:06 25.26293 51.61064 26 ft 2 kts 338°
2026-05-06 09:06 25.26341 51.61043 27 ft 12 kts 338°
2026-05-06 09:06 25.26449 51.60995 28 ft 20 kts 338°
2026-05-06 09:06 25.26583 51.60933 28 ft 22 kts 330°
2026-05-06 09:07 25.26631 51.60794 28 ft 23 kts 291°
2026-05-06 09:07 25.26687 51.60612 28 ft 27 kts 266°
2026-05-06 09:07 25.26672 51.60475 28 ft 9 kts 309°
2026-05-06 09:07 25.26753 51.60427 28 ft 18 kts 336°
2026-05-06 09:08 25.26894 51.60364 28 ft 26 kts 338°
2026-05-06 09:08 25.27013 51.60349 28 ft 11 kts 40°
2026-05-06 09:08 25.27041 51.60424 28 ft 14 kts 68°
2026-05-06 09:08 25.27088 51.60556 28 ft 22 kts 69°
2026-05-06 09:09 25.27155 51.60733 28 ft 27 kts 67°
2026-05-06 09:09 25.27233 51.60949 28 ft 33 kts 69°
2026-05-06 09:09 25.27319 51.61188 28 ft 32 kts 68°
2026-05-06 09:09 25.27372 51.61334 28 ft 13 kts 67°
2026-05-06 09:10 25.27443 51.61412 28 ft 18 kts 359°
2026-05-06 09:10 25.27513 51.61469 28 ft 14 kts 64°
2026-05-06 09:10 25.27588 51.61567 28 ft 20 kts 11°
2026-05-06 09:10 25.27735 51.61513 28 ft 25 kts 338°
2026-05-06 09:11 25.27903 51.61440 27 ft 29 kts 338°
2026-05-06 09:11 25.28103 51.61350 28 ft 33 kts 338°
2026-05-06 09:11 25.28324 51.61252 29 ft 35 kts 338°
2026-05-06 09:11 25.28567 51.61145 29 ft 38 kts 338°
2026-05-06 09:12 25.28816 51.61035 28 ft 36 kts 338°
2026-05-06 09:12 25.28922 51.61079 28 ft 15 kts 68°
2026-05-06 09:12 25.28900 51.61204 28 ft 21 kts 150°
2026-05-06 09:12 25.28674 51.61304 30 ft 63 kts 158°
2026-05-06 09:13 25.28061 51.61575 28 ft 125 kts 158°
2026-05-06 09:13 25.27086 51.62003 28 ft 176 kts 158°
2026-05-06 09:13 25.25912 51.62512 633 ft 177 kts 156°
2026-05-06 09:13 25.24748 51.62897 1358 ft 173 kts 162°
2026-05-06 09:14 25.23560 51.63250 1657 ft 188 kts 162°
2026-05-06 09:14 25.22225 51.63647 1824 ft 209 kts 162°
2026-05-06 09:14 25.20728 51.63906 2100 ft 225 kts 176°
2026-05-06 09:14 25.19138 51.63875 2522 ft 232 kts 181°
2026-05-06 09:15 25.17453 51.63724 2724 ft 255 kts 185°
2026-05-06 09:15 25.15621 51.63479 3022 ft 272 kts 187°
2026-05-06 09:15 25.13721 51.63177 3580 ft 278 kts 187°
2026-05-06 09:15 25.11794 51.62867 4236 ft 282 kts 187°
2026-05-06 09:16 25.09835 51.62551 4869 ft 286 kts 187°
2026-05-06 09:16 25.07858 51.62243 5505 ft 288 kts 187°
2026-05-06 09:16 25.05865 51.61938 6173 ft 290 kts 187°
2026-05-06 09:16 25.03855 51.61636 6768 ft 293 kts 186°
2026-05-06 09:17 25.01829 51.61340 7396 ft 295 kts 187°
2026-05-06 09:17 24.99783 51.61041 8019 ft 298 kts 187°
2026-05-06 09:17 24.97723 51.60739 8692 ft 300 kts 187°
2026-05-06 09:17 24.95637 51.60436 9373 ft 303 kts 187°
2026-05-06 09:18 24.93562 51.60132 10022 ft 306 kts 187°
2026-05-06 09:18 24.91411 51.59824 10411 ft 320 kts 187°
2026-05-06 09:18 24.89134 51.59494 10664 ft 338 kts 187°
2026-05-06 09:18 24.86745 51.59148 10911 ft 355 kts 188°
2026-05-06 09:19 24.84246 51.58783 11149 ft 370 kts 188°
2026-05-06 09:19 24.81643 51.58403 11414 ft 382 kts 188°
2026-05-06 09:19 24.78983 51.58016 11862 ft 388 kts 188°
2026-05-06 09:19 24.76286 51.57623 12388 ft 391 kts 188°
2026-05-06 09:20 24.73572 51.57229 12932 ft 395 kts 188°
2026-05-06 09:20 24.70842 51.56833 13485 ft 397 kts 188°
2026-05-06 09:20 24.68100 51.56362 13997 ft 400 kts 191°
2026-05-06 09:20 24.65365 51.55736 14499 ft 402 kts 193°
2026-05-06 09:21 24.62670 51.55049 15003 ft 404 kts 194°
2026-05-06 09:21 24.59924 51.54336 15524 ft 406 kts 193°
2026-05-06 09:21 24.57162 51.53632 16039 ft 408 kts 193°
2026-05-06 09:21 24.54389 51.52945 16546 ft 410 kts 193°
2026-05-06 09:22 24.51597 51.52266 17041 ft 412 kts 193°
2026-05-06 09:22 24.48785 51.51594 17545 ft 414 kts 193°
2026-05-06 09:22 24.45951 51.50929 18033 ft 416 kts 193°
2026-05-06 09:22 24.43114 51.50253 18471 ft 418 kts 193°
2026-05-06 09:23 24.40256 51.49578 18868 ft 421 kts 193°
2026-05-06 09:23 24.37384 51.48903 19287 ft 423 kts 193°
2026-05-06 09:23 24.34497 51.48229 19714 ft 425 kts 193°
2026-05-06 09:23 24.31585 51.47549 20119 ft 428 kts 193°
2026-05-06 09:24 24.28698 51.46872 20544 ft 431 kts 194°
2026-05-06 09:24 24.25756 51.46184 20944 ft 433 kts 194°
2026-05-06 09:24 24.22787 51.45554 21353 ft 437 kts 189°
2026-05-06 09:24 24.19745 51.45276 21768 ft 440 kts 185°
2026-05-06 09:25 24.16670 51.45170 22155 ft 444 kts 183°
2026-05-06 09:25 24.13574 51.45145 22570 ft 447 kts 182°
2026-05-06 09:25 24.10449 51.45162 22962 ft 450 kts 181°
2026-05-06 09:25 24.07308 51.45195 23353 ft 452 kts 181°
2026-05-06 09:26 24.04153 51.45227 23678 ft 455 kts 181°
2026-05-06 09:26 24.00984 51.45254 24017 ft 456 kts 182°
2026-05-06 09:26 23.97802 51.45274 24379 ft 458 kts 182°
2026-05-06 09:26 23.94614 51.45289 24755 ft 459 kts 182°
2026-05-06 09:27 23.91414 51.45300 25145 ft 461 kts 182°
2026-05-06 09:27 23.88206 51.45310 25552 ft 462 kts 182°
2026-05-06 09:27 23.85020 51.45320 25956 ft 464 kts 182°
2026-05-06 09:27 23.81784 51.45330 26379 ft 466 kts 182°
2026-05-06 09:28 23.78531 51.45340 26805 ft 468 kts 182°
2026-05-06 09:28 23.75271 51.45351 27221 ft 470 kts 182°
2026-05-06 09:28 23.71988 51.45362 27635 ft 472 kts 182°
2026-05-06 09:28 23.68692 51.45372 28048 ft 474 kts 182°
2026-05-06 09:29 23.65385 51.45383 28442 ft 477 kts 182°
2026-05-06 09:29 23.62058 51.45394 28744 ft 479 kts 182°
2026-05-06 09:29 23.58703 51.45404 28796 ft 487 kts 182°
2026-05-06 09:30 23.51849 51.45425 28790 ft 493 kts 182°
2026-05-06 09:30 23.44982 51.45461 28788 ft 493 kts 182°
2026-05-06 09:31 23.38158 51.45568 28788 ft 493 kts 181°
2026-05-06 09:31 23.31292 51.45692 28783 ft 493 kts 181°
2026-05-06 09:32 23.24427 51.45806 28778 ft 493 kts 181°
2026-05-06 09:32 23.17554 51.45915 28783 ft 493 kts 182°
2026-05-06 09:33 23.10691 51.46005 28778 ft 493 kts 182°
2026-05-06 09:33 23.03873 51.46093 28774 ft 493 kts 182°
2026-05-06 09:34 22.97010 51.46182 28776 ft 493 kts 182°
2026-05-06 09:34 22.90268 51.45214 28773 ft 487 kts 199°
2026-05-06 09:35 22.84263 51.41998 28772 ft 481 kts 218°
2026-05-06 09:35 22.79682 51.36771 28770 ft 479 kts 237°
2026-05-06 09:36 22.77036 51.30184 28776 ft 480 kts 256°
2026-05-06 09:36 22.76596 51.22986 28772 ft 483 kts 275°
2026-05-06 09:37 22.77548 51.15808 28773 ft 484 kts 275°
2026-05-06 09:37 22.77513 51.08565 28778 ft 481 kts 262°
2026-05-06 09:38 22.76429 51.01414 28776 ft 480 kts 258°
2026-05-06 09:38 22.75102 50.94314 28785 ft 480 kts 257°
2026-05-06 09:39 22.73777 50.87258 28783 ft 480 kts 258°
2026-05-06 09:39 22.72477 50.80165 28781 ft 480 kts 258°
2026-05-06 09:40 22.71188 50.73052 28780 ft 480 kts 258°
2026-05-06 09:40 22.69256 50.62412 28785 ft 480 kts 258°
2026-05-06 09:41 22.67971 50.55361 28781 ft 479 kts 258°
2026-05-06 09:41 22.66676 50.48283 28780 ft 479 kts 258°
2026-05-06 09:42 22.65377 50.41201 28782 ft 479 kts 258°
2026-05-06 09:42 22.64074 50.34115 28787 ft 479 kts 257°
2026-05-06 09:43 22.62769 50.27036 28778 ft 479 kts 257°
2026-05-06 09:43 22.61462 50.19964 28777 ft 479 kts 257°
2026-05-06 09:44 22.60161 50.12942 28777 ft 479 kts 257°
2026-05-06 09:44 22.58849 50.05875 28784 ft 479 kts 257°
2026-05-06 09:45 22.57533 49.98810 28780 ft 479 kts 257°
2026-05-06 09:45 22.56215 49.91749 28783 ft 479 kts 257°
2026-05-06 09:46 22.54893 49.84689 28777 ft 479 kts 257°
2026-05-06 09:46 22.53800 49.77568 28777 ft 480 kts 265°
2026-05-06 09:47 22.54074 49.70329 28784 ft 482 kts 273°
2026-05-06 09:47 22.54744 49.63149 28781 ft 483 kts 274°
2026-05-06 09:48 22.55474 49.55909 28782 ft 483 kts 274°
2026-05-06 09:48 22.56179 49.48681 28775 ft 483 kts 274°
2026-05-06 09:49 22.56862 49.41458 28779 ft 483 kts 274°
2026-05-06 09:49 22.57537 49.34231 28779 ft 482 kts 274°
2026-05-06 09:50 22.58095 49.28231 28781 ft 482 kts 274°
2026-05-06 09:50 22.58764 49.21004 28784 ft 482 kts 274°
2026-05-06 09:51 22.59431 49.13778 28782 ft 482 kts 274°
2026-05-06 09:51 22.60094 49.06557 28786 ft 482 kts 274°
2026-05-06 09:52 22.60749 48.99387 28789 ft 482 kts 274°
2026-05-06 09:52 22.61406 48.92162 28788 ft 482 kts 273°
2026-05-06 09:53 22.62059 48.84948 28789 ft 481 kts 273°
2026-05-06 09:53 22.62708 48.77730 28790 ft 481 kts 274°
2026-05-06 09:54 22.63354 48.70516 28795 ft 481 kts 273°
2026-05-06 09:54 22.63993 48.63345 28795 ft 481 kts 273°
2026-05-06 09:55 22.64633 48.56125 28794 ft 481 kts 273°
2026-05-06 09:55 22.65270 48.48900 28796 ft 481 kts 273°
2026-05-06 09:56 22.65903 48.41684 28791 ft 481 kts 273°
2026-05-06 09:56 22.66529 48.34508 28792 ft 481 kts 273°
2026-05-06 09:57 22.67156 48.27293 28792 ft 480 kts 273°
2026-05-06 09:57 22.67778 48.20094 28791 ft 480 kts 273°
2026-05-06 09:58 22.68392 48.12937 28795 ft 479 kts 273°
2026-05-06 09:58 22.69007 48.05746 28791 ft 479 kts 273°
2026-05-06 09:59 22.69622 47.98554 28796 ft 478 kts 273°
2026-05-06 09:59 22.70219 47.91431 28796 ft 478 kts 273°
2026-05-06 10:00 22.70815 47.84263 28793 ft 477 kts 273°
2026-05-06 10:00 22.71409 47.77101 28802 ft 477 kts 273°
2026-05-06 10:01 22.72000 47.69948 28799 ft 477 kts 273°
2026-05-06 10:01 22.72589 47.62789 28803 ft 477 kts 273°
2026-05-06 10:02 22.73175 47.55624 28805 ft 476 kts 273°
2026-05-06 10:02 22.73752 47.48522 28814 ft 476 kts 273°
2026-05-06 10:03 22.74332 47.41369 28822 ft 476 kts 273°
2026-05-06 10:03 22.74908 47.34221 28819 ft 476 kts 273°
2026-05-06 10:04 22.75479 47.27069 28825 ft 476 kts 272°
2026-05-06 10:04 22.76044 47.19967 29002 ft 473 kts 272°
2026-05-06 10:05 22.76326 47.16424 29618 ft 469 kts 272°
2026-05-06 10:05 22.76610 47.12896 30134 ft 468 kts 272°
2026-05-06 10:05 22.76890 47.09378 30478 ft 469 kts 272°
2026-05-06 10:05 22.77168 47.05849 30786 ft 470 kts 272°
2026-05-06 10:06 22.77447 47.02309 31095 ft 472 kts 272°
2026-05-06 10:06 22.77726 46.98759 31389 ft 473 kts 272°
2026-05-06 10:06 22.78002 46.95243 31708 ft 474 kts 272°
2026-05-06 10:06 22.78281 46.91690 32138 ft 471 kts 272°
2026-05-06 10:07 22.78557 46.88163 32587 ft 469 kts 272°
2026-05-06 10:07 22.78832 46.84644 33015 ft 467 kts 272°
2026-05-06 10:07 22.79105 46.81145 33435 ft 465 kts 272°
2026-05-06 10:07 22.79376 46.77655 33840 ft 464 kts 272°
2026-05-06 10:08 22.79645 46.74169 34194 ft 462 kts 272°
2026-05-06 10:08 22.79912 46.70704 34504 ft 461 kts 272°
2026-05-06 10:08 22.80178 46.67239 34814 ft 460 kts 272°
2026-05-06 10:08 22.80440 46.63818 35105 ft 460 kts 272°
2026-05-06 10:09 22.80703 46.60370 35403 ft 459 kts 272°
2026-05-06 10:09 22.80967 46.56909 35713 ft 458 kts 272°
2026-05-06 10:09 22.81227 46.53481 36011 ft 457 kts 272°
2026-05-06 10:09 22.81488 46.50040 36308 ft 456 kts 272°
2026-05-06 10:10 22.81747 46.46619 36599 ft 456 kts 272°
2026-05-06 10:10 22.82005 46.43196 36881 ft 455 kts 272°
2026-05-06 10:10 22.82258 46.39822 37147 ft 454 kts 272°
2026-05-06 10:10 22.82514 46.36414 37415 ft 453 kts 271°
2026-05-06 10:11 22.82766 46.33008 37691 ft 453 kts 271°
2026-05-06 10:11 22.83017 46.29609 37864 ft 454 kts 271°
2026-05-06 10:11 22.83519 46.22786 37885 ft 454 kts 271°
2026-05-06 10:12 22.84018 46.15968 37889 ft 454 kts 271°
2026-05-06 10:12 22.84516 46.09131 37886 ft 455 kts 271°
2026-05-06 10:13 22.85012 46.02285 37883 ft 455 kts 271°
2026-05-06 10:13 22.85505 45.95441 37880 ft 455 kts 271°
2026-05-06 10:14 22.85992 45.88644 37879 ft 455 kts 271°
2026-05-06 10:14 22.86480 45.81785 37881 ft 456 kts 271°
2026-05-06 10:15 22.86965 45.74923 37881 ft 456 kts 271°
2026-05-06 10:15 22.87448 45.68056 37879 ft 456 kts 271°
2026-05-06 10:16 22.87927 45.61198 37886 ft 456 kts 271°
2026-05-06 10:16 22.88400 45.54390 37883 ft 455 kts 271°
2026-05-06 10:17 22.88872 45.47543 37887 ft 455 kts 271°
2026-05-06 10:17 22.89341 45.40704 37893 ft 454 kts 271°
2026-05-06 10:18 22.89806 45.33870 37896 ft 454 kts 271°
2026-05-06 10:18 22.90268 45.27040 37899 ft 454 kts 271°
2026-05-06 10:19 22.90728 45.20208 37903 ft 453 kts 271°
2026-05-06 10:19 22.91183 45.13395 37913 ft 453 kts 271°
2026-05-06 10:20 22.91638 45.06583 37918 ft 452 kts 271°
2026-05-06 10:20 22.92085 44.99826 37908 ft 452 kts 270°
2026-05-06 10:21 22.92528 44.93015 37931 ft 452 kts 270°
2026-05-06 10:21 22.92969 44.86206 37930 ft 452 kts 270°
2026-05-06 10:22 22.93407 44.79402 37940 ft 451 kts 270°
2026-05-06 10:22 22.93842 44.72618 37938 ft 450 kts 270°
2026-05-06 10:23 22.94676 44.65921 37943 ft 455 kts 280°
2026-05-06 10:23 22.96532 44.59339 37947 ft 457 kts 283°
2026-05-06 10:24 22.98562 44.52806 37947 ft 457 kts 283°
2026-05-06 10:24 23.00609 44.46271 37943 ft 456 kts 283°
2026-05-06 10:25 23.02631 44.39742 37942 ft 456 kts 283°
2026-05-06 10:25 23.04641 44.33206 37940 ft 455 kts 283°
2026-05-06 10:26 23.06630 44.26718 37934 ft 455 kts 283°
2026-05-06 10:26 23.08631 44.20186 37935 ft 455 kts 283°
2026-05-06 10:27 23.10623 44.13670 37930 ft 455 kts 283°
2026-05-06 10:27 23.12603 44.07182 37927 ft 454 kts 283°
2026-05-06 10:28 23.14589 44.00665 37927 ft 454 kts 283°
2026-05-06 10:28 23.16570 43.94157 37939 ft 453 kts 283°
2026-05-06 10:29 23.18546 43.87653 37936 ft 453 kts 283°
2026-05-06 10:29 23.20516 43.81159 37939 ft 452 kts 283°
2026-05-06 10:30 23.22482 43.74665 37949 ft 452 kts 283°
2026-05-06 10:30 23.24433 43.68213 37947 ft 451 kts 283°
2026-05-06 10:31 23.26388 43.61735 37953 ft 451 kts 283°
2026-05-06 10:31 23.28345 43.55244 37960 ft 450 kts 282°
2026-05-06 10:32 23.30292 43.48776 37966 ft 450 kts 282°
2026-05-06 10:32 23.32234 43.42308 37968 ft 449 kts 282°
2026-05-06 10:33 23.34170 43.35850 37972 ft 448 kts 282°
2026-05-06 10:33 23.36103 43.29393 37984 ft 448 kts 282°
2026-05-06 10:34 23.38018 43.22984 37989 ft 448 kts 282°
2026-05-06 10:34 23.39944 43.16531 37993 ft 448 kts 282°
2026-05-06 10:35 23.41867 43.10077 38002 ft 447 kts 282°
2026-05-06 10:35 23.43778 43.03631 38006 ft 447 kts 282°
2026-05-06 10:36 23.45673 42.97227 38014 ft 445 kts 282°
2026-05-06 10:36 23.47567 42.90821 38020 ft 444 kts 282°
2026-05-06 10:37 23.49457 42.84420 38014 ft 444 kts 282°
2026-05-06 10:37 23.51347 42.78005 38013 ft 444 kts 282°
2026-05-06 10:38 23.52918 42.72678 38010 ft 444 kts 282°
2026-05-06 10:38 23.54804 42.66278 38012 ft 443 kts 282°
2026-05-06 10:39 23.56692 42.59854 38016 ft 443 kts 282°
2026-05-06 10:39 23.58555 42.53502 38025 ft 443 kts 282°
2026-05-06 10:40 23.60429 42.47107 38027 ft 443 kts 282°
2026-05-06 10:40 23.62300 42.40714 38026 ft 442 kts 282°
2026-05-06 10:41 23.64166 42.34326 38026 ft 442 kts 282°
2026-05-06 10:41 23.66026 42.27949 38023 ft 441 kts 282°
2026-05-06 10:42 23.67882 42.21575 38025 ft 441 kts 281°
2026-05-06 10:42 23.69727 42.15191 38024 ft 440 kts 281°
2026-05-06 10:43 23.71555 42.08857 38020 ft 440 kts 281°
2026-05-06 10:44 23.74311 41.99305 38017 ft 439 kts 281°
2026-05-06 10:44 23.76152 41.92942 38014 ft 439 kts 281°
2026-05-06 10:45 23.77987 41.86587 38010 ft 438 kts 281°
2026-05-06 10:45 23.79808 41.80266 38010 ft 438 kts 281°
2026-05-06 10:46 23.81637 41.73901 38003 ft 438 kts 281°
2026-05-06 10:46 23.83446 41.67597 38006 ft 438 kts 281°
2026-05-06 10:47 23.85264 41.61254 38001 ft 438 kts 281°
2026-05-06 10:47 23.87082 41.54905 38009 ft 437 kts 281°
2026-05-06 10:48 23.88893 41.48552 38007 ft 437 kts 281°
2026-05-06 10:48 23.90688 41.42210 38000 ft 436 kts 281°
2026-05-06 10:49 23.92467 41.35918 38002 ft 436 kts 281°
2026-05-06 10:49 23.94268 41.29575 37994 ft 436 kts 281°
2026-05-06 10:50 23.96065 41.23231 37997 ft 436 kts 281°
2026-05-06 10:50 23.97854 41.16901 37994 ft 435 kts 281°
2026-05-06 10:51 23.99637 41.10582 37992 ft 435 kts 281°
2026-05-06 10:51 24.01420 41.04257 37989 ft 434 kts 281°
2026-05-06 10:52 24.03194 40.97951 37989 ft 434 kts 281°
2026-05-06 10:52 24.04965 40.91648 37983 ft 433 kts 281°
2026-05-06 10:53 24.06731 40.85348 37980 ft 433 kts 280°
2026-05-06 10:53 24.08484 40.79086 37975 ft 433 kts 280°
2026-05-06 10:54 24.10245 40.72781 37972 ft 433 kts 280°
2026-05-06 10:54 24.12005 40.66475 37978 ft 433 kts 280°
2026-05-06 10:55 24.13752 40.60200 37973 ft 432 kts 280°
2026-05-06 10:55 24.15218 40.54929 37974 ft 432 kts 280°
2026-05-06 10:56 24.17849 40.48006 37971 ft 440 kts 289°
2026-05-06 10:56 24.20665 40.42038 37974 ft 441 kts 290°
2026-05-06 10:57 24.23545 40.36082 37975 ft 441 kts 290°
2026-05-06 10:57 24.26407 40.30145 37975 ft 440 kts 290°
2026-05-06 10:58 24.29236 40.24238 37975 ft 440 kts 290°
2026-05-06 10:58 24.32079 40.18284 37979 ft 439 kts 290°
2026-05-06 10:59 24.34913 40.12341 37975 ft 439 kts 289°
2026-05-06 10:59 24.37742 40.06401 37972 ft 439 kts 289°
2026-05-06 11:00 24.40550 40.00499 37973 ft 439 kts 289°
2026-05-06 11:00 24.43374 39.94555 37965 ft 439 kts 289°
2026-05-06 11:01 24.46194 39.88615 37970 ft 438 kts 289°
2026-05-06 11:01 24.49008 39.82679 37969 ft 438 kts 289°
2026-05-06 11:02 24.51817 39.76743 37942 ft 438 kts 289°
2026-05-06 11:02 24.55118 39.71091 37937 ft 450 kts 301°
2026-05-06 11:02 24.57336 39.68600 37941 ft 463 kts 309°
2026-05-06 11:03 24.59875 39.66362 37941 ft 468 kts 313°
2026-05-06 11:03 24.65152 39.62115 37947 ft 471 kts 314°
2026-05-06 11:04 24.70489 39.57931 37936 ft 470 kts 314°
2026-05-06 11:04 24.75765 39.53755 37953 ft 469 kts 314°
2026-05-06 11:05 24.81058 39.49528 37966 ft 469 kts 314°
2026-05-06 11:05 24.86339 39.45296 37962 ft 469 kts 314°
2026-05-06 11:06 24.91614 39.41061 37971 ft 469 kts 314°
2026-05-06 11:06 24.96850 39.36853 37977 ft 468 kts 314°
2026-05-06 11:07 25.02120 39.32614 37973 ft 468 kts 314°
2026-05-06 11:07 25.07390 39.28374 37973 ft 469 kts 314°
2026-05-06 11:08 25.12659 39.24131 37976 ft 468 kts 314°
2026-05-06 11:08 25.17925 39.19882 37981 ft 469 kts 313°
2026-05-06 11:09 25.22675 39.15160 37984 ft 450 kts 300°
2026-05-06 11:09 25.26270 39.09618 37982 ft 442 kts 294°
2026-05-06 11:10 25.29603 39.03928 37974 ft 440 kts 293°
2026-05-06 11:10 25.32906 38.98288 37975 ft 440 kts 294°
2026-05-06 11:11 25.36197 38.92564 37976 ft 441 kts 294°
2026-05-06 11:11 25.39515 38.86842 37958 ft 442 kts 294°
2026-05-06 11:12 25.42848 38.81119 37954 ft 443 kts 294°
2026-05-06 11:12 25.46189 38.75384 37959 ft 443 kts 294°
2026-05-06 11:13 25.49531 38.69638 37945 ft 444 kts 294°
2026-05-06 11:13 25.52878 38.63874 37948 ft 445 kts 294°
2026-05-06 11:14 25.56225 38.58104 37942 ft 445 kts 294°
2026-05-06 11:14 25.59565 38.52338 37942 ft 445 kts 294°
2026-05-06 11:15 25.62880 38.46606 37938 ft 445 kts 294°
2026-05-06 11:15 25.66218 38.40829 37939 ft 445 kts 294°
2026-05-06 11:16 25.69555 38.35045 37935 ft 445 kts 294°
2026-05-06 11:16 25.72889 38.29262 37935 ft 444 kts 294°
2026-05-06 11:17 25.76219 38.23476 37929 ft 444 kts 294°
2026-05-06 11:17 25.79526 38.17720 37935 ft 445 kts 294°
2026-05-06 11:18 25.82851 38.11930 37934 ft 445 kts 294°
2026-05-06 11:18 25.86184 38.06121 37937 ft 444 kts 294°
2026-05-06 11:19 25.89504 38.00326 37939 ft 444 kts 294°